IZ2OSD Weather Reports


time (UTC)temp
F
wind
direction
speed
knots
gust
knots
rain 1hr
in
rain 24hr
in
rain mn
in
humidity
%
barometer
mb
20260505223259 55 0.0 0.9 0.00 0.41 0.00 99 1010.7
20260505222256 55 67 0.0 1.7 0.00 0.41 0.00 99 1010.9
20260505221251 55 0.0 0.9 0.00 0.41 0.00 99 1011.0
20260505220247 55 0.0 0.9 0.00 0.41 0.00 99 1010.7
20260505215245 55 315 0.0 1.7 0.00 0.41 0.41 99 1010.9
20260505214302 55 0.0 0.9 0.00 0.41 0.41 99 1010.9
20260505213237 55 315 0.9 2.6 0.00 0.41 0.41 99 1011.1
20260505212234 55 112 0.9 2.6 0.00 0.41 0.41 98 1011.3
20260505211230 55 128 0.9 1.7 0.00 0.41 0.41 98 1011.4
20260505210221 55 315 2.6 3.5 0.00 0.41 0.41 98 1011.3
20260505205238 55 337 1.7 3.5 0.00 0.41 0.41 98 1011.5
20260505204208 55 315 0.9 2.6 0.01 0.41 0.41 98 1011.6
20260505203157 55 315 0.9 2.6 0.01 0.41 0.41 98 1011.4
20260505202156 55 112 2.6 2.6 0.01 0.41 0.41 98 1011.5
20260505201144 55 112 1.7 3.5 0.01 0.41 0.41 98 1011.6
20260505200155 55 135 0.0 1.7 0.01 0.41 0.41 98 1011.7
20260505195144 55 0.0 0.0 0.01 0.41 0.41 98 1011.4
20260505194119 55 0.0 0.0 0.00 0.40 0.40 98 1011.4
20260505193110 55 112 2.6 5.2 0.00 0.40 0.40 98 1011.4
20260505192248 55 135 0.9 2.6 0.00 0.40 0.40 98 1011.1
20260505191055 55 112 0.9 2.6 0.00 0.40 0.40 98 1011.1
20260505190052 55 315 1.7 3.5 0.00 0.40 0.40 99 1011.0
20260505185048 55 112 1.7 3.5 0.00 0.40 0.40 99 1011.1
20260505184044 55 0 1.7 2.6 0.00 0.40 0.40 99 1011.2
20260505183123 55 0 0.0 1.7 0.00 0.40 0.40 99 1011.1
20260505182033 55 315 2.6 5.2 0.00 0.40 0.40 99 1011.0
20260505181029 55 315 1.7 5.2 0.00 0.40 0.40 99 1011.2
20260505180024 55 315 2.6 5.2 0.00 0.40 0.40 99 1011.0
20260505175020 55 112 3.5 5.2 0.00 0.40 0.40 99 1010.9
20260505174017 55 315 2.6 5.2 0.00 0.40 0.40 99 1010.9
20260505173011 55 315 5.2 7.8 0.00 0.40 0.40 99 1011.1
20260505172050 54 337 5.2 9.6 0.00 0.40 0.40 98 1011.1
20260505171006 55 292 2.6 5.2 0.00 0.40 0.40 98 1011.2
20260505170458 55 315 1.7 5.2 0.01 0.40 0.40 99 1010.9
20260505165456 55 315 2.6 3.5 0.01 0.40 0.40 98 1011.1
20260505164452 55 292 2.6 5.2 0.01 0.40 0.40 98 1011.2
20260505163448 55 292 4.3 7.8 0.02 0.40 0.40 98 1011.2
20260505162446 55 315 2.6 5.2 0.02 0.40 0.40 98 1011.2
20260505161501 55 135 1.7 5.2 0.02 0.40 0.40 98 1011.0
20260505160437 55 292 3.5 5.2 0.01 0.38 0.38 98 1011.2
20260505152417 56 45 3.5 5.2 0.00 0.37 0.37 98 1011.4
20260505151414 55 90 1.7 3.5 0.00 0.37 0.37 98 1011.4
20260505150410 55 315 1.7 3.5 0.01 0.37 0.37 98 1011.4
20260505140335 56 337 0.9 2.6 0.00 0.36 0.36 95 1011.6
20260505130254 56 315 0.9 2.6 0.00 0.36 0.36 94 1011.9
20260505124302 56 315 2.6 5.2 0.00 0.36 0.36 94 1011.6
20260505123236 55 315 1.7 2.6 0.01 0.36 0.36 94 1011.8
20260505122233 55 315 0.9 2.6 0.01 0.36 0.36 94 1011.8
20260505121230 55 315 2.6 5.2 0.02 0.36 0.36 95 1011.9
20260505120220 55 315 2.6 2.6 0.03 0.36 0.36 95 1011.9
20260505115237 55 315 2.6 5.2 0.03 0.36 0.36 96 1012.0
20260505114213 55 315 2.6 3.5 0.04 0.36 0.36 96 1011.9
20260505113230 54 315 2.6 2.6 0.04 0.35 0.35 95 1011.9
20260505112207 54 0.0 0.9 0.07 0.35 0.35 95 1012.1
20260505111224 55 0.0 0.0 0.08 0.34 0.34 95 1012.0
20260505110240 55 315 0.0 0.9 0.07 0.33 0.33 95 1012.3
20260505102134 54 315 0.9 2.6 0.04 0.28 0.28 94 1012.0
20260505101132 55 292 0.9 1.7 0.03 0.25 0.25 93 1011.9
20260505100127 55 315 0.0 0.9 0.03 0.25 0.25 92 1012.2
20260505095122 55 0.0 0.0 0.02 0.24 0.24 92 1012.2
20260505094118 55 315 0.0 0.9 0.02 0.24 0.24 92 1012.2
20260505093109 55 315 0.9 1.7 0.01 0.23 0.23 92 1012.2
20260505092126 55 315 1.7 2.6 0.01 0.23 0.23 91 1012.2
20260505091102 55 315 0.0 1.7 0.00 0.22 0.22 91 1011.9
20260505090058 54 315 2.6 3.5 0.00 0.22 0.22 91 1012.0
20260505085056 54 315 1.7 3.5 0.00 0.22 0.22 93 1012.0
20260505084045 54 337 1.7 3.5 0.00 0.22 0.22 94 1011.8
20260505083041 54 315 2.6 3.5 0.01 0.22 0.22 95 1011.5
20260505082031 53 315 5.2 7.0 0.01 0.22 0.22 95 1011.9
20260505081025 54 315 3.5 7.0 0.02 0.22 0.22 96 1011.7
20260505080022 54 315 0.9 2.6 0.05 0.22 0.22 97 1011.8
20260505075020 54 315 3.5 5.2 0.05 0.22 0.22 97 1011.6
20260505074017 54 315 2.6 5.2 0.09 0.22 0.22 97 1011.5
20260505073032 54 315 4.3 7.0 0.09 0.21 0.21 97 1011.6
20260505072009 55 315 1.7 3.5 0.12 0.21 0.21 96 1011.8
20260505071008 55 292 0.0 2.6 0.14 0.20 0.20 96 1011.2
20260505070002 54 292 2.6 3.5 0.14 0.16 0.16 96 1011.4
20260505064958 55 292 0.0 1.7 0.12 0.14 0.14 95 1011.5
20260505063955 55 0.0 0.0 0.12 0.12 0.12 95 1011.7
20260505062946 55 0.0 0.0 0.09 0.09 0.09 94 1011.5
20260505061944 55 0.0 0.9 0.07 0.07 0.07 93 1011.9
20260505060934 55 0.0 0.0 0.04 0.04 0.04 91 1011.7
20260505055932 55 292 0.0 0.9 0.02 0.02 0.02 89 1011.6
20260505054924 56 292 0.0 0.9 0.01 0.01 0.01 86 1011.5
20260505053921 57 292 0.0 0.9 0.00 0.00 0.00 82 1011.5
20260505052919 57 315 0.0 0.9 0.00 0.00 0.00 78 1011.1
20260505051909 58 0.0 0.9 0.00 0.00 0.00 75 1011.1
20260505050906 59 0.0 0.9 0.00 0.00 0.00 73 1011.0
20260505040838 58 0.0 0.0 0.00 0.00 0.00 74 1011.1
20260505035855 58 0.0 0.0 0.00 0.00 0.00 74 1010.9
20260505034851 58 0.0 0.0 0.00 0.00 0.00 73 1010.9
20260505033842 59 0.0 0.0 0.00 0.00 0.00 71 1011.1
20260505032817 59 0.0 0.0 0.00 0.00 0.00 71 1011.2
20260505031814 59 0.0 0.0 0.00 0.00 0.00 70 1011.2
20260505030810 59 112 0.0 0.9 0.00 0.00 0.00 70 1011.6
20260505025806 59 0.0 0.0 0.00 0.00 0.00 70 1011.4
20260505024756 59 0.0 0.0 0.00 0.00 0.00 71 1011.6
20260505023753 59 0.0 0.0 0.00 0.00 0.00 71 1011.7
20260505022749 59 0.0 0.0 0.00 0.00 0.00 70 1011.8
20260505021746 59 0.0 0.0 0.00 0.00 0.00 68 1011.9
20260505020742 59 0.0 0.0 0.00 0.00 0.00 67 1011.8
20260505015734 59 292 0.0 0.9 0.00 0.00 0.00 66 1011.8
20260505014730 60 0.0 0.0 0.00 0.00 0.00 64 1012.1
20260505013725 60 0.0 0.0 0.00 0.00 0.00 64 1012.3
20260505012724 60 0.0 0.0 0.00 0.00 0.00 65 1012.4
20260505011723 60 315 0.0 1.7 0.00 0.00 0.00 65 1012.6
20260505010714 60 0.0 0.9 0.00 0.00 0.00 65 1012.7
20260505005710 60 0.0 0.0 0.00 0.00 0.00 65 1012.8
20260505004707 61 292 0.9 1.7 0.00 0.00 0.00 66 1013.2
20260505003658 61 0.0 0.0 0.00 0.00 0.00 67 1013.2
20260505002655 61 0.0 0.0 0.00 0.00 0.00 68 1013.4
20260505001711 61 0.0 0.0 0.00 0.00 0.00 69 1013.7
20260505000647 61 0.0 0.0 0.00 0.00 0.00 69 1013.7
20260504235644 61 0.0 0.0 0.00 0.00 0.00 70 1013.8
20260504234655 61 0.0 0.0 0.00 0.00 0.00 69 1014.1
20260504233631 60 0.0 0.0 0.00 0.00 0.00 69 1014.0
20260504232623 61 292 0.9 1.7 0.00 0.00 0.00 67 1014.3
20260504231638 61 0.0 0.0 0.00 0.00 0.00 66 1014.3
20260504230613 62 0.0 0.0 0.00 0.00 0.00 66 1014.0
20260504225610 61 0.0 0.0 0.00 0.00 0.00 66 1014.3
20260504224606 62 0.0 0.0 0.00 0.00 0.00 65 1014.5